www.pogodaiklimat.ru

Погода и климат >> Архив погоды >> Португалия >> Сагрес


ПОГОДА в Сагресе

  • Прогноз погоды в Сагресе
  • Монитор погоды в Сагресе

АРХИВ ПОГОДЫ в Сагресе

Время (UTC), дата Ветер
(напр.,м/с)
 
Видим.   Явления Облачность Т
(С)
Тd
(С)
f
(%)
Тe
(С)
Тes
(С)
Комфортность P
(гПа)
Po
(гПа)
Тmin
(С)
Tmax
(С)
R
(мм)
R24
(мм)
S
(см)
10 12.06 н/о н/о +19.9 +9.8 52 1014.0 1011.1
11 12.06 н/о н/о +20.6 +9.8 50 1014.1 1011.2
12 12.06 н/о н/о +20.3 +9.9 51 1014.2 1011.2
13 12.06 н/о н/о +21.0 +9.6 48 1014.1 1011.2
14 12.06 н/о н/о +19.9 +10.8 56 1013.6 1010.7
15 12.06 н/о н/о +19.9 +10.8 56 1013.6 1010.7
16 12.06 н/о н/о +18.7 +10.0 57 1012.7 1009.8
17 12.06 н/о н/о +18.3 +10.0 58 1012.2 1009.3
18 12.06 н/о н/о +17.2 +9.8 62 1012.5 1009.5 +21.7
19 12.06 н/о н/о +16.3 +10.5 69 1012.8 1009.9
20 12.06 н/о н/о +15.4 +10.9 75 1012.5 1009.5
21 12.06 н/о н/о +14.9 +10.8 76 1013.1 1010.1
22 12.06 н/о н/о +15.0 +11.0 77 1013.4 1010.5
23 12.06 н/о н/о +14.9 +10.8 76 1012.9 1010.0
00 13.06 н/о н/о +14.6 +10.6 77 1012.5 1009.6
01 13.06 н/о н/о +14.1 +9.8 75 1012.5 1009.6
02 13.06 н/о н/о +14.2 +9.7 74 1012.0 1009.0
03 13.06 н/о н/о +13.6 +9.4 76 1012.3 1009.3
04 13.06 н/о н/о +13.2 +9.4 78 1012.9 1009.9
05 13.06 н/о н/о +12.9 +9.1 78 1013.0 1010.0
06 13.06 н/о н/о +13.3 +9.4 77 1013.7 1010.7 +12.5
07 13.06 н/о н/о +15.0 +9.5 70 1013.8 1010.9
08 13.06 н/о н/о +16.0 +9.6 66 1014.4 1011.4
09 13.06 н/о н/о +17.2 +9.8 62 1013.9 1011.0
10 13.06 н/о н/о +18.3 +9.9 58 1014.5 1011.6
11 13.06 н/о н/о +18.8 +10.2 57 1014.4 1011.5
12 13.06 н/о н/о +19.7 +8.7 49 1014.3 1011.4
13 13.06 н/о н/о +19.2 +9.8 54 1014.2 1011.2
14 13.06 н/о н/о +18.5 +9.5 56 1013.7 1010.8
15 13.06 н/о н/о +20.5 +9.6 50 1013.4 1010.5
16 13.06 н/о н/о +19.5 +9.8 53 1013.3 1010.4
17 13.06 н/о н/о +18.3 +10.1 59 1013.3 1010.4
18 13.06 н/о н/о +17.7 +10.0 61 1013.5 1010.6 +20.7
19 13.06 н/о н/о +16.7 +10.1 65 1014.3 1011.3
20 13.06 н/о н/о +15.3 +9.5 68 1014.8 1011.8
21 13.06 н/о н/о +15.1 +9.9 71 1015.2 1012.3
22 13.06 н/о н/о +15.1 +9.9 71 1015.7 1012.7
23 13.06 н/о н/о +14.8 +10.3 74 1016.3 1013.3
00 14.06 н/о н/о +14.8 +10.5 75 1016.5 1013.5
01 14.06 н/о н/о +14.2 +10.1 76 1016.7 1013.7
02 14.06 н/о н/о +14.0 +10.3 78 1016.2 1013.2
03 14.06 н/о н/о +13.5 +9.8 78 1016.6 1013.6
04 14.06 н/о н/о +13.1 +9.9 81 1016.6 1013.6
05 14.06 н/о н/о +13.4 +10.7 84 1016.6 1013.6
06 14.06 н/о н/о +13.3 +10.9 85 1017.1 1014.1 +12.2
07 14.06 н/о н/о +15.8 +10.9 73 1017.7 1014.8
08 14.06 н/о н/о +17.1 +10.7 66 1018.6 1015.6
09 14.06 н/о н/о +17.1 +11.0 67 1019.5 1016.5
10 14.06 н/о н/о +18.2 +10.7 62 1019.5 1016.6
11 14.06 н/о н/о +19.5 +10.7 57 1019.7 1016.8
12 14.06 н/о н/о +19.8 +10.4 55 1020.0 1017.0
13 14.06 н/о н/о +20.0 +11.2 57 1020.0 1017.1
14 14.06 н/о н/о +20.1 +10.2 53 1020.5 1017.6
15 14.06 н/о н/о +18.4 +10.3 59 1020.6 1017.6
16 14.06 н/о н/о +19.4 +10.9 58 1020.4 1017.5
17 14.06 н/о н/о +19.4 +11.0 58 1020.6 1017.6
18 14.06 н/о н/о +19.1 +11.4 61 1020.2 1017.2 +20.7
19 14.06 н/о н/о +18.3 +11.5 65 1021.0 1018.0
20 14.06 н/о н/о +16.2 +11.4 73 1021.7 1018.7
21 14.06 н/о н/о +14.2 +11.1 82 1021.7 1018.7
22 14.06 н/о н/о +13.5 +10.3 81 1022.1 1019.1
23 14.06 н/о н/о +12.6 +10.1 85 1022.4 1019.4
00 15.06 н/о н/о +12.3 +10.0 86 1022.4 1019.4
01 15.06 н/о н/о +11.1 +9.4 89 1021.9 1018.9
02 15.06 н/о н/о +11.6 +10.8 95 1021.6 1018.6
03 15.06 н/о н/о +10.6 +10.3 98 1021.3 1018.3
04 15.06 н/о н/о +11.1 +11.1 100 1021.4 1018.4
05 15.06 н/о н/о +10.6 +10.6 100 1021.7 1018.6
06 15.06 н/о н/о +11.9 +11.9 100 1022.0 1019.0 +10.3
07 15.06 н/о н/о +16.0 +15.0 94 1021.7 1018.7
08 15.06 н/о н/о +18.4 +12.0 66 1022.6 1019.6
09 15.06 н/о н/о +19.1 +10.6 58 1022.4 1019.5
10 15.06 н/о н/о +19.8 +9.3 51 1022.9 1019.9
11 15.06 н/о н/о +20.3 +8.8 48 1022.8 1019.9
12 15.06 н/о н/о +21.3 +9.4 47 1022.8 1019.9
13 15.06 н/о н/о +20.0 +9.7 51 1022.5 1019.5
14 15.06 н/о н/о +19.9 +10.4 54 1021.7 1018.7
15 15.06 н/о н/о +19.9 +11.5 58 1021.7 1018.8
16 15.06 н/о н/о +19.8 +11.7 60 1021.1 1018.2
17 15.06 н/о н/о +19.0 +12.1 64 1020.6 1017.6
18 15.06 н/о н/о +19.0 +12.4 66 1021.0 1018.0 +22.1
19 15.06 н/о н/о +17.1 +12.3 73 1020.5 1017.6
20 15.06 н/о н/о +15.8 +12.1 79 1020.4 1017.4
21 15.06 н/о н/о +15.6 +12.4 81 1020.0 1017.0
22 15.06 н/о н/о +15.4 +12.0 80 1020.6 1017.6
23 15.06 н/о н/о +15.4 +12.2 81 1020.1 1017.2
00 16.06 н/о н/о +14.8 +11.8 82 1019.7 1016.7
01 16.06 н/о н/о +14.7 +12.4 86 1019.5 1016.5
02 16.06 н/о н/о +14.7 +12.5 87 1019.2 1016.2
03 16.06 н/о н/о +14.8 +12.7 87 1018.3 1015.3
04 16.06 н/о н/о +14.4 +11.5 83 1018.1 1015.1
05 16.06 н/о н/о +14.3 +10.5 78 1018.3 1015.3
06 16.06 н/о н/о +14.6 +10.3 75 1018.4 1015.4 +14.2
07 16.06 н/о н/о +15.7 +10.3 70 1018.6 1015.6
08 16.06 н/о н/о +16.6 +10.6 68 1019.2 1016.3
09 16.06 н/о н/о +18.1 +9.3 56 1019.2 1016.3
10 16.06 н/о н/о +18.7 +9.0 53 1019.4 1016.4
11 16.06 н/о н/о +19.2 +11.0 59 1020.0 1017.1
12 16.06 н/о н/о +20.3 +10.1 52 1019.8 1016.9
13 16.06 н/о н/о +20.6 +11.6 56 1020.0 1017.0
14 16.06 н/о н/о +20.9 +12.0 57 1019.9 1016.9
15 16.06 н/о н/о +19.9 +12.3 62 1019.9 1017.0
16 16.06 н/о н/о +20.1 +12.6 62 1019.3 1016.3
17 16.06 н/о н/о +19.2 +12.4 65 1019.4 1016.5
18 16.06 н/о н/о +18.5 +12.0 66 1019.0 1016.1 +21.3
19 16.06 н/о н/о +17.1 +11.4 69 1019.6 1016.7
20 16.06 н/о н/о +15.8 +11.6 76 1019.2 1016.2
21 16.06 н/о н/о +15.4 +11.8 79 1019.5 1016.5
22 16.06 н/о н/о +15.3 +12.0 81 1020.1 1017.1
23 16.06 н/о н/о +14.9 +12.2 84 1019.8 1016.8
00 17.06 н/о н/о +14.5 +12.1 86 1019.6 1016.6
01 17.06 н/о н/о +14.0 +12.0 88 1019.4 1016.4
02 17.06 н/о н/о +14.1 +12.3 89 1018.7 1015.7
03 17.06 н/о н/о +13.8 +12.1 89 1018.6 1015.6
04 17.06 н/о н/о +13.9 +12.3 90 1018.1 1015.1
05 17.06 н/о н/о +13.6 +13.2 97 1018.2 1015.2
06 17.06 н/о н/о +14.3 +14.3 100 1018.1 1015.1 +13.4
07 17.06 н/о н/о +16.1 +12.8 81 1018.0 1015.0
08 17.06 н/о н/о +17.9 +11.6 67 1018.6 1015.7
09 17.06 н/о н/о +19.4 +10.9 58 1018.0 1015.1
10 17.06 н/о н/о +18.4 +10.6 60 1018.0 1015.1
11 17.06 н/о н/о +18.7 +12.6 68 1018.6 1015.7
12 17.06 н/о н/о +19.6 +12.6 64 1018.1 1015.2
13 17.06 н/о н/о +18.7 +12.3 66 1018.4 1015.5
14 17.06 н/о н/о +19.1 +12.9 67 1017.9 1014.9
15 17.06 н/о н/о +19.1 +12.6 66 1017.4 1014.4
16 17.06 н/о н/о +19.1 +12.6 66 1017.2 1014.3
17 17.06 н/о н/о +19.4 +12.8 66 1016.7 1013.8
18 17.06 н/о н/о +19.1 +12.8 67 1016.3 1013.4 +20.4
19 17.06 н/о н/о +18.3 +13.3 73 1016.4 1013.4
20 17.06 н/о н/о +16.7 +13.2 80 1016.3 1013.4
21 17.06 н/о н/о +16.1 +13.4 84 1016.4 1013.5
22 17.06 н/о н/о +16.2 +13.6 85 1016.9 1014.0
23 17.06 н/о н/о +16.0 +13.9 87 1017.0 1014.1
00 18.06 н/о н/о +16.2 +14.3 89 1016.9 1014.0
01 18.06 н/о н/о +16.2 +14.6 90 1016.7 1013.7
02 18.06 н/о н/о +17.0 +15.3 90 1015.5 1012.6
03 18.06 н/о н/о +15.8 +14.3 91 1015.4 1012.4
04 18.06 н/о н/о +16.3 +16.0 98 1014.8 1011.9
05 18.06 н/о н/о +17.7 +17.7 100 1015.6 1012.6
06 18.06 н/о н/о +17.5 +17.5 100 1015.9 1012.9 +15.6 0.1
07 18.06 н/о н/о +18.3 +18.3 100 1015.7 1012.8
08 18.06 н/о н/о +18.9 +18.9 100 1016.0 1013.1
09 18.06 н/о н/о +19.9 +17.2 84 1016.6 1013.6
10 18.06 н/о н/о +21.0 +16.6 76 1017.1 1014.1
11 18.06 н/о н/о +21.9 +17.0 74 1017.4 1014.5
12 18.06 н/о н/о +21.4 +16.7 75 1017.3 1014.4
13 18.06 н/о н/о +20.8 +16.2 75 1017.6 1014.7
14 18.06 н/о н/о +20.9 +16.5 76 1017.3 1014.3
15 18.06 н/о н/о +21.1 +16.8 76 1016.8 1013.9
16 18.06 н/о н/о +22.5 +17.1 72 1016.9 1014.0
17 18.06 н/о н/о +21.0 +17.2 79 1016.8 1013.9
18 18.06 н/о н/о +20.9 +17.4 80 1017.4 1014.5 +22.8
19 18.06 н/о н/о +19.5 +16.7 84 1017.1 1014.2
20 18.06 н/о н/о +18.3 +16.9 92 1017.0 1014.1
21 18.06 н/о н/о +17.8 +17.8 100 1017.4 1014.5
22 18.06 н/о н/о +18.0 +18.0 100 1018.5 1015.5
23 18.06 н/о н/о +17.1 +17.1 100 1018.4 1015.4
00 19.06 н/о н/о +17.4 +17.4 100 1018.0 1015.0
01 19.06 н/о н/о +16.9 +16.9 100 1017.2 1014.2
02 19.06 н/о н/о +17.3 +17.3 100 1017.0 1014.0
03 19.06 н/о н/о +16.7 +16.7 100 1016.8 1013.9
05 19.06 н/о н/о +17.4 +17.4 100 1017.1 1014.1 0.1
06 19.06 н/о н/о +17.1 +17.1 100 1017.2 1014.3 +16.5 0.1
07 19.06 н/о н/о +18.4 +18.4 100 1017.9 1014.9
08 19.06 н/о н/о +18.2 +18.2 100 1018.0 1015.0

 

Местоположение метеостанции Сагрес (Португалия): широта 37.00 долгота -8.95 высота над уровнем моря 26 м.

В архиве по умолчанию представлена погода в Сагресе за последнюю неделю. Архивные данные за месяц целиком и за предыдущие месяцы, начиная с января 2011 года, Вы можете получить, выбрав интересующий диапазон дат из раскрывающегося списка и нажав кнопку "Ввод!".


*Определитесь, кто Вы:
робот инопланетянин человек

Внимание! Время в таблицах - всемирное. Для получения местного времени необходимо прибавить поправку, которая равна 0 ч.

Смотрите также архив погоды в соседних городах и на ближайших метеорологических станциях:

Погода в Фару (Португалия) (87 км)
Погода в Синише (Португалия) (106 км)
Погода в Айямонте - Исла Канель (Испания) (140 км)
Погода в Беже (Португалия) (148 км)
Погода в Бежа аэропорту (Португалия) (150 км)
Погода в Уэльве (Испания) (183 км)
Погода в Монтижу (Португалия) (189 км)
Погода в Лиссабоне (Португалия) (192 км)
Погода в Эворе (Португалия) (194 км)
Погода в Эль-Ареносильо (Испания) (196 км)

Пояснения к столбцам:

Ветер - указаны скорость ветра в м/с - средняя за 10 мин, порывы в срок и между сроками (в фигурных скобках) и направление, откуда дует ветер: С - северный, СВ - северо-восточный, В - восточный, ЮВ - юго-восточный, Ю - южный, ЮЗ - юго-западный, З - западный, СЗ - северо-западный.
Видимость - горизонтальная дальность видимости в метрах или километрах. При видимости от 1 до 10 км при отсутствии осадков обычно наблюдается дымка, при ухудшении видимости до 1 км и менее - туман. В сухую погоду видимость может ухудшаться дымом, пылью или мглою.
Явления - указаны атмосферные явления, наблюдавшиеся в срок или в последний час перед сроком; фигурными скобками обозначены явления, наблюдавшиеся между сроками (за 1-3 часа до срока); квадратными скобками обозначены град или гололедные отложения с указанием их диаметра в мм.
Облачность - указаны через наклонную черту общая и нижняя облачность в баллах и высота нижней границы облаков в метрах; квадратными скобками обозначены формы облаков: Ci - перистые, Cs - перисто-слоистые, Cc - перисто-кучевые, Ac - высококучевые, As - высокослоистые, Sc - слоисто-кучевые, Ns - слоисто-дождевые, Cu - кучевые, Cb - кучево-дождевые. Подробнее классификацию облаков см. в Атласе облаков (PDF).
T - Температура воздуха - температура, измеренная на высоте 2 м над землей.
Td - Температура точки росы - температура, при понижении до которой содержащийся в воздухе водяной пар достигнет насыщения.
f - Относительная влажность воздуха - влажноcть воздуха, измеренная на высоте 2 м над землей.
Te - Эффективная температура - температура, которую ощущает одетый по сезону человек в тени. Характеристика душности погоды. При расчете учитывается влияние влажности воздуха и скорости ветра на теплоощущения человека.
Tes - Эффективная температура на солнце - температура, которую ощущает человек, с поправкой на солнечный нагрев. Характеристика знойности погоды. Зависит от высоты солнца над горизонтом, облачности и скорости ветра. Ночью, в пасмурную погоду, а также при ветре 12 м/с и более поправка равна нулю.
P - Атмосферное давление - приведенное к уровню моря атмосферное давление.
Po - Атмосферное давление - измеренное на уровне метеостанции атмосферное давление.
Tmin - Минимальная температура - минимум температуры воздуха на высоте 2 м над землей.
Tmax - Максимальная температура - максимум температуры воздуха на высоте 2 м над землей.
R - Количество осадков - Количество выпавших осадков за период времени, мм. При наведении курсора мыши на число - период времени, за который выпало указанное количество осадков.
R24 - Количество осадков - Количество выпавших осадков за 24 часа, мм.
S - Снежный покров - Высота снежного покрова, см. При наведении курсора мыши на число - состояние снежного покрова и степень покрытия местности в баллах.